Location: Allen Lane School
(37.8198°N, 89.7382°W)
Time: 07:04:17
(UTC+00:00)

N. Korean satellite - Pass Details

Date: 10 December 2022
Orbit: 407 x 444 km, 97.3° (Epoch: 28 January)

Event Time Altitude Azimuth Distance (km) Brightness Sun altitude
Rises 12:04:29 0° 354° (N) 2,478 9.9 -11.4°
Reaches altitude 10° 12:06:59 10° 335° (NNW) 1,589 8.8 -11.0°
Maximum altitude 12:09:22 18° 290° (WNW) 1,167 7.8 -10.5°
Drops below altitude 10° 12:11:42 10° 246° (WSW) 1,558 8.7 -10.1°
Sets 12:14:08 0° 226° (SW) 2,409 9.9 -9.7°
